Tracking 29892 objects as of 21-Nov-2024
HD Live streaming from Space Station
objects crossing your sky now

STARLINK-3147

Track STARLINK-3147 now!
10-day predictions
STARLINK-3147 is classified as:


NORAD ID: 49410
Int'l Code: 2021-104C
Perigee: 545.8 km
Apogee: 548.0 km
Inclination: 53.2 °
Period: 95.4 minutes
Semi major axis: 6917 km
RCS: Unknown
Launch date: November 13, 2021
Source: United States (US)
Launch site: AIR FORCE EASTERN TEST RANGE (AFETR)
Your satellite tracking list
Your tracking list is empty




NASA's NSSDC Master Catalog

Two Line Element Set (TLE):
1 49410U 21104C   24325.64005579  .00001332  00000-0  10177-3 0  9996
2 49410  53.2151 197.2179 0001620  86.0873 274.0304 15.08843121167067
Source of the keplerian elements: AFSPC